Flag for United Kingdom Weather past 2 weeks in Derby, England, United Kingdom

Now
68 °F

Passing clouds.


Feels Like: 68 °F
Forecast: 55 / 68 °F
Wind: 12 mph from West

Location: East Midlands

Current Time: Jul 31, 2014 at 11:03:08 AM

Latest Report: Jul 31, 2014 at 10:20 AM


Visibility: N/A

Pressure: 29.92 "Hg

Humidity: 69%

Dew point: 57 °F

Location of DerbyLocation

Historic Weather in Derby — Graph

°F

Derby temperature yesterday

Maximum temperature yesterday: 72 °F (at 3:20 PM)
Minimum temperature yesterday: 55 °F (at 12:20 AM)
Average temperature yesterday: 63 °F

Past Weeks' High & Low Weather Summary

 TemperatureHumidityPressure
High82 °F (Jul 18, 4:50 PM)100% (Jul 19, 5:20 AM)30.27 "Hg (Jul 19, 5:20 AM)
Low52 °F (Jul 28, 4:20 AM)37% (Jul 26, 3:20 PM)29.74 "Hg (Jul 19, 4:20 PM)
Average66 °F75%30.03 "Hg
* Reported Jul 16 9:20 AM — Jul 31 9:50 AM, Derby, Weather by CustomWeather, © 2014

Note: Actual official high and low records may vary slightly from our data, if they occured in-between our weather recording intervals... More about our weather records

Advertising

Derby weather history for previous 24 hours

 ConditionsComfort  
Time TempWeatherWind HumidityBarometerVisibility
9:50 AM
Jul 31
66 °FPassing clouds.12 mph73%29.92 "HgN/A
9:20 AM64 °FPassing clouds.14 mph78%29.92 "HgN/A
8:50 AM64 °FSunny.14 mph73%29.92 "Hg10 mi
8:20 AM61 °FSunny.13 mph83%29.92 "Hg10 mi
7:50 AM61 °FSunny.13 mph77%29.92 "Hg10 mi
7:20 AM59 °FSunny.10 mph82%29.92 "Hg10 mi
6:20 AM57 °FClear.10 mph82%29.92 "Hg10 mi
5:50 AM57 °FClear.8 mph82%29.95 "Hg10 mi
5:20 AM57 °FClear.9 mph82%29.95 "Hg10 mi
4:50 AM57 °FClear.9 mph82%29.95 "Hg10 mi
4:20 AM57 °FClear.10 mph82%29.95 "Hg10 mi
3:50 AM59 °FClear.12 mph82%29.95 "Hg10 mi
3:20 AM59 °FClear.10 mph82%29.95 "Hg10 mi
2:50 AM59 °FClear.10 mph82%29.95 "Hg10 mi
2:20 AM59 °FClear.12 mph82%29.95 "Hg10 mi
1:50 AM59 °FClear.9 mph82%29.98 "Hg10 mi
1:20 AM59 °FClear.8 mph82%29.98 "Hg10 mi
12:50 AM59 °FClear.10 mph82%29.98 "Hg10 mi
12:20 AM59 °FClear.9 mph82%29.98 "Hg10 mi
11:50 PM
Jul 30
61 °FClear.9 mph77%29.98 "Hg10 mi
11:20 PM61 °FClear.8 mph77%29.98 "Hg10 mi
10:20 PM61 °FClear.7 mph77%29.98 "Hg10 mi
9:50 PM63 °FSunny.6 mph73%29.98 "Hg10 mi
9:20 PM63 °FSunny.6 mph73%29.98 "Hg10 mi
8:50 PM64 °FSunny.7 mph68%29.98 "Hg10 mi
8:20 PM66 °FPassing clouds.8 mph68%29.98 "HgN/A
7:50 PM70 °FPassing clouds.6 mph64%29.95 "HgN/A
7:20 PM72 °FPassing clouds.8 mph61%29.95 "HgN/A
6:50 PM72 °FScattered clouds.9 mph61%29.95 "HgN/A
6:20 PM72 °FPartly sunny.6 mph57%29.95 "HgN/A
5:50 PM72 °FPartly sunny.6 mph57%29.95 "HgN/A
5:20 PM72 °FPartly sunny.3 mph53%29.95 "HgN/A
4:50 PM72 °FPartly sunny.5 mph57%29.98 "HgN/A
4:20 PM70 °FScattered showers. Partly sunny.7 mph60%29.98 "HgN/A
3:50 PM70 °FScattered showers. Partly sunny.8 mph60%29.98 "HgN/A
3:20 PM72 °FScattered clouds.9 mph57%29.98 "HgN/A
1:50 PM66 °FPartly sunny.13 mph64%30.01 "HgN/A
1:20 PM66 °FPartly sunny.12 mph64%30.01 "HgN/A
12:50 PM66 °FPartly sunny.10 mph64%30.01 "HgN/A
12:20 PM64 °FPartly sunny.13 mph68%30.01 "HgN/A
11:50 AM63 °FPartly sunny.14 mph73%30.01 "HgN/A
11:20 AM63 °FPartly sunny.10 mph73%30.01 "HgN/A
Weather by CustomWeather, © 2014

See weather overviewHow to use our weather pages